Location: Rosenheim
(47.8408°N, 12.2113°E)
Time: 03:11:38
(UTC+01:00)

ISS - Pass Details

Date: 15 November 2017
Orbit: 402 x 407 km, 51.6° (Epoch: 22 November)

Event Time Altitude Azimuth Distance (km) Brightness Sun altitude
Exits shadow 06:28:01 10° 267° (W) 1,452 -1.6 -8.4°
Maximum altitude 06:30:19 18° 222° (SW) 1,056 -1.9 -8.0°
Drops below altitude 10° 06:32:38 10° 176° (S) 1,448 -0.7 -7.7°
Sets 06:35:07 0° 157° (SSE) 2,303 0.7 -7.3°
